This demonstration page uses our WeatherBlox Daily Observations layout. Learn more.

Left ArrowRight Arrow

Hourly Observations for August 24, 2021

Temp ( °F °C ) Dew Point ( °F °C ) Humidity (%) Winds ( mph kmh ) Pressure ( in mb ) Visibility ( mi km ) Precip ( " mm )
12:51 am 00:51 Clear 77 25 64 17.8 64 64 E 9 15 29.84 1011 10 16 0.00 0.00
1:51 am 01:51 Clear 76 24.4 64 17.8 67 67 E 7 11 29.84 1011 10 16 0.00 0.00
2:51 am 02:51 Clear 73 22.8 65 18.3 76 76 S 8 13 29.84 1011 10 16 0.00 0.00
3:51 am 03:51 Clear 73 22.8 65 18.3 76 76 SSE 9 15 29.85 1011 10 16 0.00 0.00
4:51 am 04:51 Clear 73 22.8 65 18.3 76 76 SE 10 17 29.89 1012 10 16 0.00 0.00
5:51 am 05:51 Sunny 72 22.2 65 18.3 79 79 SE 7 11 29.91 1013 10 16 0.00 0.00
6:51 am 06:51 Sunny 74 23.3 65 18.3 74 74 Calm 29.91 1013 10 16 0.00 0.00
10:51 am 10:51 Sunny 87 30.6 64 17.8 46 46 VRB 3 6 29.90 1012 10 16 0.00 0.00
11:51 am 11:51 Sunny 92 33.3 63 17.2 38 38 NW 7 11 29.86 1011 10 16 0.00 0.00
12:51 pm 12:51 Sunny 94 34.4 62 16.7 35 35 VRB 3 6 29.84 1011 10 16 0.00 0.00
1:51 pm 13:51 Sunny 97 36.1 59 15 28 28 WNW 12 19 29.81 1009 10 16 0.00 0.00
2:51 pm 14:51 Sunny 98 36.7 56 13.3 24 24 W 14 22 29.79 1009 10 16 0.00 0.00
3:51 pm 15:51 Sunny 95 35 58 14.4 29 29 W 10 17 29.78 1009 10 16 0.00 0.00
4:51 pm 16:51 Sunny 97 36.1 54 12.2 24 24 NW 8 13 29.77 1008 10 16 0.00 0.00
5:51 pm 17:51 Sunny 96 35.6 53 11.7 23 23 WNW 10 17 29.77 1008 10 16 0.00 0.00
6:51 pm 18:51 Sunny 93 33.9 56 13.3 29 29 WNW 7 11 29.77 1008 10 16 0.00 0.00
7:51 pm 19:51 Clear 86 30 58 14.4 39 39 NNW 6 9 29.81 1010 10 16 0.00 0.00
8:51 pm 20:51 Clear 83 28.3 59 15 44 44 NW 6 9 29.83 1010 10 16 0.00 0.00
9:51 pm 21:51 Clear 82 27.8 59 15 46 46 NNE 3 6 29.83 1010 10 16 0.00 0.00
10:51 pm 22:51 Clear 79 26.1 59 15 50 50 Calm 29.84 1011 10 16 0.00 0.00
11:51 pm 23:51 Clear 78 25.6 61 16.1 56 56 Calm 29.84 1010 10 16 0.00 0.00

Powered by AerisWeather